This is the latest recevied weather packets stored in our database for station/object KB3VSP. If no packets are shown the sender has not sent any weather packets the latest 10 day(s).
| Time | Temp. | Humidity | Pressure | Rain* | Wind** | Luminosity | Snow |
|---|---|---|---|---|---|---|---|
| 1777073375 | 22.78° C | 58% | 1008 hPa | 0 mm | - | 12 W/m² | - |
| 1777073071 | 22.78° C | 56% | 1007.7 hPa | 0 mm | - | 14 W/m² | - |
| 1777072768 | 22.78° C | 56% | 1007.4 hPa | 0 mm | - | 20 W/m² | - |
| 1777072466 | 22.78° C | 56% | 1007.6 hPa | 0 mm | - | 26 W/m² | - |
| 1777072161 | 23.33° C | 54% | 1007.9 hPa | 0 mm | - | 16 W/m² | - |
| 1777071857 | 23.33° C | 54% | 1008 hPa | 0 mm | - | 9 W/m² | - |
| 1777071553 | 23.89° C | 53% | 1007.8 hPa | 0 mm | - | 6 W/m² | - |
| 1777071249 | 24.44° C | 53% | 1007.6 hPa | 0 mm | - | 4 W/m² | - |
| 1777070944 | 25° C | 46% | 1007.7 hPa | 0 mm | - | 8 W/m² | - |
| 1777070642 | 25° C | 46% | 1007.7 hPa | 0 mm | - | 19 W/m² | - |
| 1777070337 | 25° C | 46% | 1007.7 hPa | 0 mm | - | 19 W/m² | - |
| 1777070036 | 25.56° C | 45% | 1007.6 hPa | 0 mm | - | 22 W/m² | - |
| 1777069731 | 25.56° C | 44% | 1007.6 hPa | 0 mm | - | 32 W/m² | - |
| 1777069426 | 25.56° C | 44% | 1007.9 hPa | 0 mm | - | 40 W/m² | - |
| 1777069123 | 25.56° C | 44% | 1007.6 hPa | 0 mm | - | 58 W/m² | - |
| 1777068819 | 25.56° C | 44% | 1007.4 hPa | 0 mm | - | 64 W/m² | - |
| 1777068515 | 26.11° C | 43% | 1007.7 hPa | 0 mm | - | 68 W/m² | - |
| 1777068213 | 25.56° C | 43% | 1007.6 hPa | 0 mm | - | 70 W/m² | - |
| 1777067909 | 25.56° C | 43% | 1007.4 hPa | 0 mm | - | 66 W/m² | - |
| 1777067608 | 26.11° C | 43% | 1007.3 hPa | 0 mm | - | 63 W/m² | - |
| 1777067307 | 26.11° C | 43% | 1007.7 hPa | 0 mm | - | 65 W/m² | - |
| 1777067002 | 26.67° C | 42% | 1007.3 hPa | 0 mm | - | 83 W/m² | - |
| 1777066698 | 26.67° C | 41% | 1007.3 hPa | 0 mm | - | 101 W/m² | - |
| 1777066394 | 26.67° C | 41% | 1007.4 hPa | 0 mm | - | 117 W/m² | - |
| 1777066084 | 26.67° C | 42% | 1007.1 hPa | 0 mm | - | 97 W/m² | - |
* Rain latest hour (hover to see other rain measurements)
** Current wind speed in m/s (hover to see current wind gust speed)